Regional Weather Roundup
Issued by NWS

Home | Current Version | Previous Version | Text Only | Print | Product List | Glossary On
Versions: 1 2 3 4 5 6 7 8 9 10 11 12 13 14 15 16 17 18 19 20 21 22 23 24 25 26 27
000
ASUS44 KLIX 271113
RWRLA
LOUISIANA WEATHER ROUNDUP
NATIONAL WEATHER SERVICE NEW ORLEANS LA
600 AM CDT TUE JUN 27 2017

NOTE: "FAIR" INDICATES FEW OR NO CLOUDS BELOW 12,000 FEET WITH NO
      SIGNIFICANT WEATHER AND/OR OBSTRUCTIONS TO VISIBILITY.
      SKY/WX - SKY CONDITION AND SIGNIFICANT WEATHER.
      TMP - AIR TEMPERATURE.    DP   - DEWPOINT TEMPERATURE.
      RH  - RELATIVE HUMIDITY.  PRES - PRESSURE.
      HX  - HEAT INDEX.         WCI  - WIND CHILL INDEX.

*  THESE STATIONS ARE NOT NWS OR FAA STATIONS AND ARE NOT UNDER
   NWS QUALITY CONTROL.

LAZ040-048-061>063-065-066-069-271200-
SOUTHEAST LOUISIANA

CITY           SKY/WX    TMP DP  RH WIND       PRES   REMARKS
N.O. INTL ARPT CLOUDY    77  75  93 CALM      30.01F
N.O. LAKEFRONT MOCLDY    81  71  71 NE3       30.02S
N.O. DOWNTOWN*   N/A     79  72  79 CALM        N/A
RESERVE*       PTSUNNY   77  74  91 CALM      30.02R
SLIDELL        CLOUDY    72  69  90 CALM      30.02S
BATON ROUGE    MOCLDY    73  70  90 CALM      30.02S
BOOTHVILLE     LGT RAIN  77  75  93 CALM      30.02S
BELLE CHASSE   MOCLDY   N/A N/A N/A CALM      30.01S
BOGALUSA*      FAIR      70  66  86 CALM      30.05S
GALLIANO*      DRIZZLE   75  73  91 CALM      30.01S
NEW ROADS*       N/A     73  73  98 NE3       30.02F
GONZALES*      FAIR      75  74  96 CALM      30.01S
HAMMOND*       CLOUDY    70  66  88 CALM      30.03R
HOUMA*         PTCLDY    73  73 100 CALM      30.01
PORT FOURCHON* PTSUNNY  N/A N/A N/A E5        30.00S

$$

LAZ041-044-053-054-271200-
SOUTHWEST LOUISIANA

CITY           SKY/WX    TMP DP  RH WIND       PRES   REMARKS
LAKE CHARLES   MOCLDY    75  75 100 NE3       30.00F
LAFAYETTE      CLOUDY    75  74  96 NE5       30.01F
PATTERSON      CLOUDY    75  75 100 NE3       30.01R
SALT POINT       N/A     76  74  93 CALM      29.99S
NEW IBERIA     CLOUDY    75  72  90 N3        30.02R
CHENAULT AIRPK MOCLDY    73  73 100 CALM      30.02R

$$

LAZ027-028-271200-
CENTRAL LOUISIANA

CITY           SKY/WX    TMP DP  RH WIND       PRES   REMARKS
FORT POLK      CLOUDY    72  71  95 CALM      30.02S
ALEXANDRIA INT CLOUDY    72  71  97 CALM      30.01S
ALEXANDRIA     CLOUDY    70  70 100 CALM      30.03S

$$

LAZ001-002-271200-
NORTHWEST LOUISIANA

CITY           SKY/WX    TMP DP  RH WIND       PRES   REMARKS
SHREVEPORT     PTCLDY    71  67  87 CALM      30.04R
BARKSDALE AFB  CLEAR     69  67  93 CALM      30.04R
DTN SHREVEPORT CLEAR     70  65  84 CALM      30.05R

$$

LAZ014-016-271200-
NORTHEAST LOUISIANA

CITY           SKY/WX    TMP DP  RH WIND       PRES   REMARKS
MONROE         PTCLDY    67  65  93 CALM      30.05R
TALLULAH       MOCLDY    66  65  96 CALM      30.05R

$$





USA.gov is the U.S. government's official web portal to all federal, state and local government web resources and services.